Flag for U.S.A. Weather past 2 weeks in Cleveland, Ohio, U.S.A.

Now
49 °F

Light rain. More clouds than sun.


Feels Like: 43 °F
Forecast: 47 / 52 °F
Wind: 16 mph from Northwest

Location: Cleveland-Hopkins International Airport

Current Time: Oct 21, 2014 at 3:11:38 PM

Latest Report: Oct 21, 2014 at 1:51 PM


Visibility: 10 mi

Pressure: 30.00 "Hg

Humidity: 77%

Dew point: 42 °F

Location of ClevelandLocation

Historic Weather in Cleveland — Graph

°F

Cleveland temperature yesterday

Maximum temperature yesterday: 57 °F (at 12:51 PM)
Minimum temperature yesterday: 47 °F (at 12:51 AM)
Average temperature yesterday: 51 °F

Past Weeks' High & Low Weather Summary

 TemperatureHumidityPressure
High77 °F (Oct 14, 2:51 PM)97% (Oct 16, 2:04 AM)30.26 "Hg (Oct 16, 2:04 AM)
Low33 °F (Oct 12, 5:51 AM)41% (Oct 12, 4:51 PM)29.56 "Hg (Oct 17, 2:51 PM)
Average54 °F76%29.93 "Hg
* Reported Oct 6 1:51 PM — Oct 21 1:51 PM, Cleveland, Weather by CustomWeather, © 2014

Note: Actual official high and low records may vary slightly from our data, if they occured in-between our weather recording intervals... More about our weather records

Advertising

Cleveland weather history for previous 24 hours

 ConditionsComfort  
Time TempWeatherWind HumidityBarometerVisibility
1:51 PM
Oct 21
49 °FLight rain. More clouds than sun.16 mph77%30.00 "Hg10 mi
12:51 PM49 °FMore clouds than sun.20 mph84%29.99 "Hg10 mi
11:51 AM49 °FLight rain. Fog.17 mph84%29.98 "Hg5 mi
11:01 AM49 °FLight rain. Fog.13 mph93%29.96 "Hg6 mi
10:51 AM49 °FLight rain. Fog.13 mph93%29.96 "Hg2 mi
9:51 AM50 °FLight rain. Mostly cloudy.13 mph89%29.94 "Hg10 mi
8:51 AM51 °FLight rain. Mostly cloudy.12 mph83%29.93 "Hg10 mi
7:51 AM50 °FOvercast.9 mph89%29.91 "Hg10 mi
6:51 AM51 °FMostly cloudy.9 mph86%29.90 "Hg10 mi
5:51 AM51 °FOvercast.9 mph89%29.88 "Hg9 mi
4:51 AM51 °FLight rain. Fog.12 mph92%29.87 "Hg4 mi
3:51 AM52 °FLight rain. Fog.7 mph93%29.86 "Hg3 mi
2:51 AM53 °FLight rain. Fog.7 mph93%29.85 "Hg4 mi
1:57 AM52 °FLight rain. Fog.6 mph97%29.86 "Hg3 mi
12:51 AM52 °FFog.7 mph97%29.86 "Hg4 mi
11:51 PM
Oct 20
52 °FFog.6 mph97%29.87 "Hg4 mi
10:51 PM52 °FFog.5 mph97%29.88 "Hg4 mi
10:00 PM52 °FLight rain. Fog.7 mph93%29.87 "Hg3 mi
8:59 PM52 °FLight rain. Fog.9 mph93%29.87 "Hg5 mi
7:51 PM53 °FLight rain. Fog.9 mph93%29.87 "Hg4 mi
6:51 PM53 °FLight rain. Fog.8 mph89%29.86 "Hg5 mi
6:01 PM53 °FRain. Fog.8 mph89%29.85 "Hg3 mi
5:51 PM53 °FLight rain. Fog.7 mph89%29.85 "Hg4 mi
4:51 PM56 °FCloudy.9 mph70%29.84 "Hg10 mi
3:51 PM56 °FMostly cloudy.9 mph67%29.84 "Hg10 mi
Weather by CustomWeather, © 2014

See weather overviewHow to use our weather pages